星链-1851 (STARLINK-1851 )

导读

STARLINK-1851是美国SpaceX星链(Starlink)项目中的卫星,于2020年10月24日发射升空,是星链低轨卫星互联网星座组网进程中的一员,服务于全球覆盖高速互联网接入的目标,星链低轨卫星星座构建后可为偏远地区等提供网络服务,该星链卫星运行在近地轨道参与星座组网。

基本信息
目录编号:
46783
目录名称:
STARLINK-1851
国际标识:
2020-074AW
轨道中心:
EARTH
卫星名称:
星链-1851
卫星全名:
星链-1851 (STARLINK-1851 )
卫星状态:
已陨落 最后检测时间 2024-05-20
发射日期:
2020-10-24 UTC
国别 :
美国 (US)
星等 :
--
该卫星已列入 空间交会检测服务 Space Conjunction Data Service (SCDS) ,当前飞行风险评估等级: 无高风险
轨道信息
数据来源 国际轨道数据
星历时间: 2024-05-20T15:37:55+0800
轨道信息已过期845天
半长轴: 6595.515km
偏心率: 0.0011252
轨道倾角: 53.036°
近地点辐角 257.450°
升交点赤经 350.847°
平近点角 255.779°
近地点: 209.958km
远地点: 224.802km
周期: 88.845分钟
每日圈数: 16.20801
详细信息
固有亮度:
5
最大亮度:
2.5
卫星平台:
Starlink V1.0
覆盖范围:
全球
运营商:
太空探索技术公司
运营商所在国:
美国
制造商(研发单位):
太空探索技术公司
制造商所在国:
美国
使用方式:
暂无
卫星简介
星链(Starlink)计划是由太空探索技术公司(SpaceX)提出的一个巨型低轨卫星互联网星座项目,计划在2019年至2024年间在太空搭建由约1.2万颗卫星组成的“星链”网络,其中1584颗将部署在地球上空550千米处的近地轨道,并从2020年开始工作。该卫星已陨落。
与全量物体交会距离演化趋势
与全量物体交会风险概率演化趋势